Location: Haieshausen
(51.8387°N, 9.9720°E)
Time: 03:15:43
(UTC+00:00)

SL-16 R/B - Pass Details

Date: 14 July 2020
Orbit: 985 x 1007 km, 99.5° (Epoch: 10 August)

Event Time Altitude Azimuth Distance (km) Brightness Sun altitude
Exits shadow 00:11:55 - 143° (SE) 2,864 4.6 -15.8°
Reaches altitude 10° 00:12:10 10° 143° (SE) 2,771 4.5 -15.8°
Maximum altitude 00:18:16 59° 66° (ENE) 1,158 3.1 -15.6°
Drops below altitude 10° 00:24:25 10° 349° (N) 2,796 5.9 -15.4°
Sets 00:26:56 0° 346° (NNW) 3,750 6.7 -15.3°
